| time (UTC) | temp F | wind direction | speed knots | gust knots | rain 1hr in | rain 24hr in | rain mn in | humidity % | barometer mb |
| 20260504070359 | 94 | 340 | 16.5 | 53.9 | 0.00 | 0.00 | 0.00 | 27 | 1009.0 |
| 20260504070159 | 94 | 340 | 16.5 | 53.9 | 0.00 | 0.00 | 0.00 | 25 | 1009.0 |
| 20260504060234 | 92 | 326 | 17.4 | 53.9 | 0.00 | 0.00 | 0.00 | 28 | 1010.0 |
| 20260504050547 | 89 | 308 | 17.4 | 53.9 | 0.00 | 0.00 | 0.00 | 37 | 1011.0 |
| 20260504050347 | 89 | 308 | 17.4 | 53.9 | 0.00 | 0.00 | 0.00 | 37 | 1011.0 |
| 20260504050147 | 89 | 308 | 17.4 | 53.9 | 0.00 | 0.00 | 0.00 | 37 | 1011.0 |
| 20260504045947 | 88 | 305 | 17.4 | 52.1 | 0.00 | 0.00 | 0.00 | 40 | 1011.0 |
| 20260504045747 | 88 | 305 | 17.4 | 52.1 | 0.00 | 0.00 | 0.00 | 40 | 1011.0 |
| 20260504045547 | 88 | 305 | 17.4 | 52.1 | 0.00 | 0.00 | 0.00 | 40 | 1011.0 |
| 20260504045347 | 88 | 305 | 17.4 | 52.1 | 0.00 | 0.00 | 0.00 | 40 | 1011.0 |
| 20260504045147 | 88 | 305 | 17.4 | 52.1 | 0.00 | 0.00 | 0.00 | 40 | 1011.0 |
| 20260504044947 | 88 | 305 | 17.4 | 52.1 | 0.00 | 0.00 | 0.00 | 40 | 1011.0 |
| 20260504044547 | 88 | 305 | 17.4 | 52.1 | 0.00 | 0.00 | 0.00 | 40 | 1011.0 |
| 20260504044347 | 87 | 301 | 17.4 | 51.3 | 0.00 | 0.00 | 0.00 | 43 | 1011.0 |
| 20260504044147 | 87 | 301 | 17.4 | 51.3 | 0.00 | 0.00 | 0.00 | 43 | 1011.0 |
| 20260504043947 | 87 | 301 | 17.4 | 51.3 | 0.00 | 0.00 | 0.00 | 43 | 1011.0 |
| 20260504043747 | 87 | 301 | 17.4 | 51.3 | 0.00 | 0.00 | 0.00 | 43 | 1011.0 |
| 20260504043547 | 87 | 301 | 17.4 | 51.3 | 0.00 | 0.00 | 0.00 | 43 | 1011.0 |
| 20260504043347 | 87 | 301 | 17.4 | 51.3 | 0.00 | 0.00 | 0.00 | 43 | 1011.0 |
| 20260504043147 | 87 | 301 | 17.4 | 51.3 | 0.00 | 0.00 | 0.00 | 43 | 1011.0 |
| 20260504042947 | 85 | 296 | 17.4 | 49.5 | 0.00 | 0.00 | 0.00 | 47 | 1012.0 |
| 20260504042547 | 85 | 296 | 17.4 | 49.5 | 0.00 | 0.00 | 0.00 | 47 | 1012.0 |
| 20260504042347 | 85 | 296 | 17.4 | 49.5 | 0.00 | 0.00 | 0.00 | 47 | 1012.0 |
| 20260504042147 | 85 | 296 | 17.4 | 49.5 | 0.00 | 0.00 | 0.00 | 47 | 1012.0 |
| 20260504041947 | 85 | 296 | 17.4 | 49.5 | 0.00 | 0.00 | 0.00 | 47 | 1012.0 |
| 20260504041747 | 85 | 296 | 17.4 | 49.5 | 0.00 | 0.00 | 0.00 | 47 | 1012.0 |
| 20260504041547 | 85 | 296 | 17.4 | 49.5 | 0.00 | 0.00 | 0.00 | 47 | 1012.0 |
| 20260504041347 | 84 | 292 | 17.4 | 47.8 | 0.00 | 0.00 | 0.00 | 52 | 1012.0 |
| 20260504041147 | 84 | 292 | 17.4 | 47.8 | 0.00 | 0.00 | 0.00 | 52 | 1012.0 |
| 20260504040947 | 84 | 292 | 17.4 | 47.8 | 0.00 | 0.00 | 0.00 | 52 | 1012.0 |
| 20260504040748 | 84 | 292 | 17.4 | 47.8 | 0.00 | 0.00 | 0.00 | 52 | 1012.0 |
| 20260504040347 | 84 | 292 | 17.4 | 47.8 | 0.00 | 0.00 | 0.00 | 52 | 1012.0 |
| 20260504040148 | 84 | 292 | 17.4 | 47.8 | 0.00 | 0.00 | 0.00 | 52 | 1012.0 |
| 20260504035947 | 83 | 289 | 16.5 | 47.8 | 0.00 | 0.00 | 0.00 | 54 | 1012.0 |
| 20260504035747 | 83 | 289 | 16.5 | 47.8 | 0.00 | 0.00 | 0.00 | 54 | 1012.0 |
| 20260504035548 | 83 | 289 | 16.5 | 47.8 | 0.00 | 0.00 | 0.00 | 54 | 1012.0 |
| 20260504035347 | 83 | 289 | 16.5 | 47.8 | 0.00 | 0.00 | 0.00 | 54 | 1012.0 |
| 20260504035147 | 83 | 289 | 16.5 | 47.8 | 0.00 | 0.00 | 0.00 | 54 | 1012.0 |
| 20260504034947 | 83 | 289 | 16.5 | 47.8 | 0.00 | 0.00 | 0.00 | 54 | 1012.0 |
| 20260504034747 | 83 | 289 | 16.5 | 47.8 | 0.00 | 0.00 | 0.00 | 54 | 1012.0 |
| 20260504034347 | 82 | 284 | 16.5 | 46.1 | 0.00 | 0.00 | 0.00 | 58 | 1012.0 |
| 20260504034147 | 82 | 284 | 16.5 | 46.1 | 0.00 | 0.00 | 0.00 | 58 | 1012.0 |
| 20260504033947 | 82 | 284 | 16.5 | 46.1 | 0.00 | 0.00 | 0.00 | 58 | 1012.0 |
| 20260504033747 | 82 | 284 | 16.5 | 46.1 | 0.00 | 0.00 | 0.00 | 58 | 1012.0 |
| 20260504033547 | 82 | 284 | 16.5 | 46.1 | 0.00 | 0.00 | 0.00 | 58 | 1012.0 |
| 20260504033347 | 82 | 284 | 16.5 | 46.1 | 0.00 | 0.00 | 0.00 | 58 | 1012.0 |
| 20260504033147 | 82 | 284 | 16.5 | 46.1 | 0.00 | 0.00 | 0.00 | 58 | 1012.0 |
| 20260504032947 | 81 | 279 | 15.6 | 44.3 | 0.00 | 0.00 | 0.00 | 62 | 1012.0 |
| 20260504032747 | 81 | 279 | 15.6 | 44.3 | 0.00 | 0.00 | 0.00 | 62 | 1012.0 |
| 20260504032548 | 81 | 279 | 15.6 | 44.3 | 0.00 | 0.00 | 0.00 | 62 | 1012.0 |
| 20260504032147 | 81 | 279 | 15.6 | 44.3 | 0.00 | 0.00 | 0.00 | 62 | 1012.0 |
| 20260504031947 | 81 | 279 | 15.6 | 44.3 | 0.00 | 0.00 | 0.00 | 62 | 1012.0 |
| 20260504031747 | 81 | 279 | 15.6 | 44.3 | 0.00 | 0.00 | 0.00 | 62 | 1012.0 |
| 20260504031547 | 81 | 279 | 15.6 | 44.3 | 0.00 | 0.00 | 0.00 | 62 | 1012.0 |
| 20260504031347 | 79 | 274 | 15.6 | 43.4 | 0.00 | 0.00 | 0.00 | 66 | 1012.0 |
| 20260504031147 | 79 | 274 | 15.6 | 43.4 | 0.00 | 0.00 | 0.00 | 66 | 1012.0 |
| 20260504030947 | 79 | 274 | 15.6 | 43.4 | 0.00 | 0.00 | 0.00 | 66 | 1012.0 |
| 20260504030747 | 79 | 274 | 15.6 | 43.4 | 0.00 | 0.00 | 0.00 | 66 | 1012.0 |
| 20260504030547 | 79 | 274 | 15.6 | 43.4 | 0.00 | 0.00 | 0.00 | 66 | 1012.0 |
| 20260504030348 | 79 | 274 | 15.6 | 43.4 | 0.00 | 0.00 | 0.00 | 66 | 1012.0 |
| 20260504025947 | 78 | 274 | 14.8 | 41.7 | 0.00 | 0.00 | 0.00 | 69 | 1012.0 |
| 20260504025747 | 78 | 274 | 14.8 | 41.7 | 0.00 | 0.00 | 0.00 | 69 | 1012.0 |
| 20260504025547 | 78 | 274 | 14.8 | 41.7 | 0.00 | 0.00 | 0.00 | 69 | 1012.0 |
| 20260504025347 | 78 | 274 | 14.8 | 41.7 | 0.00 | 0.00 | 0.00 | 69 | 1012.0 |
| 20260504025147 | 78 | 274 | 14.8 | 41.7 | 0.00 | 0.00 | 0.00 | 69 | 1012.0 |
| 20260504024947 | 78 | 274 | 14.8 | 41.7 | 0.00 | 0.00 | 0.00 | 69 | 1012.0 |
| 20260504024747 | 78 | 274 | 14.8 | 41.7 | 0.00 | 0.00 | 0.00 | 69 | 1012.0 |
| 20260504024547 | 78 | 274 | 14.8 | 41.7 | 0.00 | 0.00 | 0.00 | 69 | 1012.0 |
| 20260504024347 | 77 | 274 | 14.8 | 40.0 | 0.00 | 0.00 | 0.00 | 74 | 1012.0 |
| 20260504024148 | 77 | 274 | 14.8 | 40.0 | 0.00 | 0.00 | 0.00 | 74 | 1012.0 |
| 20260504023747 | 77 | 274 | 14.8 | 40.0 | 0.00 | 0.00 | 0.00 | 74 | 1012.0 |
| 20260504023547 | 77 | 274 | 14.8 | 40.0 | 0.00 | 0.00 | 0.00 | 74 | 1012.0 |
| 20260504023347 | 77 | 274 | 14.8 | 40.0 | 0.00 | 0.00 | 0.00 | 74 | 1012.0 |
| 20260504023147 | 77 | 274 | 14.8 | 40.0 | 0.00 | 0.00 | 0.00 | 74 | 1012.0 |
| 20260504022947 | 76 | 272 | 13.9 | 38.2 | 0.00 | 0.00 | 0.00 | 78 | 1012.0 |
| 20260504022747 | 76 | 272 | 13.9 | 38.2 | 0.00 | 0.00 | 0.00 | 78 | 1012.0 |
| 20260504022547 | 76 | 272 | 13.9 | 38.2 | 0.00 | 0.00 | 0.00 | 78 | 1012.0 |
| 20260504022347 | 76 | 272 | 13.9 | 38.2 | 0.00 | 0.00 | 0.00 | 78 | 1012.0 |
| 20260504022147 | 76 | 272 | 13.9 | 38.2 | 0.00 | 0.00 | 0.00 | 78 | 1012.0 |
| 20260504021551 | 76 | 272 | 13.9 | 38.2 | 0.00 | 0.00 | 0.00 | 78 | 1012.0 |
| 20260504021351 | 74 | 271 | 13.9 | 35.6 | 0.00 | 0.00 | 0.00 | 83 | 1012.0 |
| 20260504021151 | 74 | 271 | 13.9 | 35.6 | 0.00 | 0.00 | 0.00 | 83 | 1012.0 |
| 20260504020951 | 74 | 271 | 13.9 | 35.6 | 0.00 | 0.00 | 0.00 | 83 | 1012.0 |
| 20260504020551 | 74 | 271 | 13.9 | 35.6 | 0.00 | 0.00 | 0.00 | 83 | 1012.0 |
| 20260504020351 | 74 | 271 | 13.9 | 35.6 | 0.00 | 0.00 | 0.00 | 83 | 1012.0 |
| 20260504020151 | 74 | 271 | 13.9 | 35.6 | 0.00 | 0.00 | 0.00 | 83 | 1012.0 |
| 20260504015951 | 74 | 270 | 13.0 | 33.9 | 0.00 | 0.00 | 0.00 | 84 | 1012.0 |
| 20260504015751 | 74 | 270 | 13.0 | 33.9 | 0.00 | 0.00 | 0.00 | 84 | 1012.0 |
| 20260504015551 | 74 | 270 | 13.0 | 33.9 | 0.00 | 0.00 | 0.00 | 84 | 1012.0 |
| 20260504015351 | 74 | 270 | 13.0 | 33.9 | 0.00 | 0.00 | 0.00 | 84 | 1012.0 |
| 20260504015151 | 74 | 270 | 13.0 | 33.9 | 0.00 | 0.00 | 0.00 | 84 | 1012.0 |
| 20260504014951 | 74 | 270 | 13.0 | 33.9 | 0.00 | 0.00 | 0.00 | 84 | 1012.0 |
| 20260504014551 | 74 | 270 | 13.0 | 33.9 | 0.00 | 0.00 | 0.00 | 84 | 1012.0 |
| 20260504014351 | 73 | 267 | 13.0 | 32.2 | 0.00 | 0.00 | 0.00 | 87 | 1012.0 |
| 20260504014151 | 73 | 267 | 13.0 | 32.2 | 0.00 | 0.00 | 0.00 | 87 | 1012.0 |
| 20260504013951 | 73 | 267 | 13.0 | 32.2 | 0.00 | 0.00 | 0.00 | 87 | 1012.0 |
| 20260504013751 | 73 | 267 | 13.0 | 32.2 | 0.00 | 0.00 | 0.00 | 87 | 1012.0 |
| 20260504013551 | 73 | 267 | 13.0 | 32.2 | 0.00 | 0.00 | 0.00 | 87 | 1012.0 |
| 20260504013351 | 73 | 267 | 13.0 | 32.2 | 0.00 | 0.00 | 0.00 | 87 | 1012.0 |
| 20260504013151 | 73 | 267 | 13.0 | 32.2 | 0.00 | 0.00 | 0.00 | 87 | 1012.0 |
| 20260504012951 | 72 | 265 | 13.0 | 29.5 | 0.00 | 0.00 | 0.00 | 89 | 1011.0 |
| 20260504012752 | 72 | 265 | 13.0 | 29.5 | 0.00 | 0.00 | 0.00 | 89 | 1011.0 |
| 20260504012351 | 72 | 265 | 13.0 | 29.5 | 0.00 | 0.00 | 0.00 | 89 | 1011.0 |
| 20260504012151 | 72 | 265 | 13.0 | 29.5 | 0.00 | 0.00 | 0.00 | 89 | 1011.0 |
| 20260504011951 | 72 | 265 | 13.0 | 29.5 | 0.00 | 0.00 | 0.00 | 89 | 1011.0 |
| 20260504011751 | 72 | 265 | 13.0 | 29.5 | 0.00 | 0.00 | 0.00 | 89 | 1011.0 |
| 20260504011551 | 72 | 265 | 13.0 | 29.5 | 0.00 | 0.00 | 0.00 | 89 | 1011.0 |
| 20260504011351 | 72 | 263 | 12.2 | 27.8 | 0.00 | 0.00 | 0.00 | 91 | 1011.0 |
| 20260504011151 | 72 | 263 | 12.2 | 27.8 | 0.00 | 0.00 | 0.00 | 91 | 1011.0 |
| 20260504010951 | 72 | 269 | 12.2 | 27.8 | 0.00 | 0.00 | 0.00 | 91 | 1011.0 |
| 20260504010751 | 72 | 269 | 12.2 | 27.8 | 0.00 | 0.00 | 0.00 | 91 | 1011.0 |
| 20260504010552 | 72 | 269 | 12.2 | 27.8 | 0.00 | 0.00 | 0.00 | 91 | 1011.0 |
| 20260504010152 | 72 | 269 | 11.3 | 27.8 | 0.00 | 0.00 | 0.00 | 91 | 1011.0 |
| 20260504005951 | 72 | 269 | 11.3 | 27.8 | 0.00 | 0.00 | 0.00 | 91 | 1011.0 |
| 20260504005751 | 72 | 269 | 11.3 | 27.8 | 0.00 | 0.00 | 0.00 | 91 | 1011.0 |
| 20260504005551 | 72 | 269 | 11.3 | 27.8 | 0.00 | 0.00 | 0.00 | 91 | 1011.0 |
| 20260504005351 | 72 | 269 | 11.3 | 27.8 | 0.00 | 0.00 | 0.00 | 91 | 1011.0 |
| 20260504005151 | 72 | 269 | 11.3 | 27.8 | 0.00 | 0.00 | 0.00 | 91 | 1011.0 |
| 20260504004951 | 72 | 269 | 11.3 | 27.8 | 0.00 | 0.00 | 0.00 | 91 | 1011.0 |
| 20260504004751 | 72 | 269 | 11.3 | 27.8 | 0.00 | 0.00 | 0.00 | 91 | 1011.0 |
| 20260504004551 | 72 | 269 | 11.3 | 27.8 | 0.00 | 0.00 | 0.00 | 91 | 1011.0 |
| 20260504004151 | 72 | 267 | 11.3 | 29.5 | 0.00 | 0.00 | 0.00 | 90 | 1011.0 |
| 20260504003951 | 71 | 267 | 11.3 | 29.5 | 0.00 | 0.00 | 0.00 | 94 | 1011.0 |
| 20260504003752 | 71 | 267 | 11.3 | 29.5 | 0.00 | 0.00 | 0.00 | 94 | 1011.0 |
| 20260504003551 | 71 | 267 | 11.3 | 29.5 | 0.00 | 0.00 | 0.00 | 94 | 1011.0 |
| 20260504003351 | 71 | 267 | 11.3 | 29.5 | 0.00 | 0.00 | 0.00 | 94 | 1011.0 |
| 20260504003151 | 71 | 267 | 11.3 | 29.5 | 0.00 | 0.00 | 0.00 | 94 | 1011.0 |
| 20260504002951 | 71 | 265 | 11.3 | 32.2 | 0.00 | 0.00 | 0.00 | 94 | 1011.0 |
| 20260504002751 | 71 | 265 | 11.3 | 32.2 | 0.00 | 0.00 | 0.00 | 94 | 1011.0 |
| 20260504002551 | 71 | 265 | 11.3 | 32.2 | 0.00 | 0.00 | 0.00 | 94 | 1011.0 |
| 20260504002352 | 71 | 265 | 11.3 | 32.2 | 0.00 | 0.00 | 0.00 | 94 | 1011.0 |
| 20260504001951 | 71 | 265 | 11.3 | 32.2 | 0.00 | 0.00 | 0.00 | 94 | 1011.0 |
| 20260504001751 | 71 | 265 | 11.3 | 32.2 | 0.00 | 0.00 | 0.00 | 94 | 1011.0 |
| 20260504001551 | 71 | 265 | 11.3 | 32.2 | 0.00 | 0.00 | 0.02 | 94 | 1011.0 |
| 20260504001351 | 71 | 259 | 11.3 | 33.9 | 0.00 | 0.00 | 0.02 | 93 | 1011.0 |
| 20260504001151 | 71 | 259 | 11.3 | 33.9 | 0.00 | 0.00 | 0.02 | 93 | 1011.0 |
| 20260504000951 | 71 | 259 | 11.3 | 33.9 | 0.00 | 0.00 | 0.02 | 94 | 1011.0 |
| 20260504000751 | 71 | 259 | 11.3 | 33.9 | 0.00 | 0.00 | 0.02 | 94 | 1011.0 |
| 20260504000551 | 71 | 259 | 11.3 | 33.9 | 0.00 | 0.00 | 0.02 | 94 | 1011.0 |
| 20260504000354 | 71 | 259 | 11.3 | 33.9 | 0.00 | 0.00 | 0.02 | 94 | 1011.0 |
| 20260503235951 | 71 | 249 | 11.3 | 35.6 | 0.00 | 0.00 | 0.02 | 93 | 1010.0 |
| 20260503235754 | 71 | 249 | 11.3 | 35.6 | 0.00 | 0.00 | 0.02 | 93 | 1010.0 |
| 20260503235551 | 71 | 249 | 11.3 | 35.6 | 0.00 | 0.00 | 0.02 | 93 | 1010.0 |
| 20260503235351 | 71 | 249 | 11.3 | 35.6 | 0.00 | 0.00 | 0.02 | 93 | 1010.0 |
| 20260503235151 | 71 | 249 | 11.3 | 35.6 | 0.00 | 0.00 | 0.02 | 93 | 1010.0 |
| 20260503234951 | 71 | 249 | 11.3 | 35.6 | 0.00 | 0.00 | 0.02 | 93 | 1010.0 |
| 20260503234751 | 71 | 249 | 11.3 | 35.6 | 0.00 | 0.00 | 0.02 | 93 | 1010.0 |
| 20260503234551 | 71 | 249 | 11.3 | 35.6 | 0.00 | 0.00 | 0.02 | 93 | 1010.0 |
| 20260503234351 | 71 | 236 | 13.0 | 36.5 | 0.00 | 0.00 | 0.02 | 93 | 1010.0 |
| 20260503234152 | 71 | 236 | 13.0 | 36.5 | 0.00 | 0.00 | 0.02 | 93 | 1010.0 |
| 20260503233751 | 71 | 236 | 13.0 | 36.5 | 0.00 | 0.00 | 0.02 | 93 | 1010.0 |
| 20260503233552 | 71 | 236 | 13.0 | 36.5 | 0.00 | 0.00 | 0.02 | 93 | 1010.0 |
| 20260503233352 | 71 | 236 | 13.0 | 36.5 | 0.00 | 0.00 | 0.02 | 93 | 1010.0 |
| 20260503233151 | 71 | 236 | 13.0 | 36.5 | 0.00 | 0.00 | 0.02 | 93 | 1010.0 |
| 20260503232952 | 71 | 225 | 14.8 | 38.2 | 0.00 | 0.00 | 0.02 | 91 | 1010.0 |
| 20260503232752 | 71 | 225 | 14.8 | 38.2 | 0.00 | 0.00 | 0.02 | 91 | 1010.0 |
| 20260503232551 | 71 | 225 | 14.8 | 38.2 | 0.00 | 0.00 | 0.02 | 91 | 1010.0 |
| 20260503232351 | 71 | 225 | 14.8 | 38.2 | 0.00 | 0.00 | 0.02 | 91 | 1010.0 |
| 20260503232152 | 71 | 225 | 14.8 | 38.2 | 0.00 | 0.00 | 0.02 | 91 | 1010.0 |
| 20260503231952 | 71 | 225 | 14.8 | 38.2 | 0.00 | 0.00 | 0.02 | 91 | 1010.0 |
| 20260503231551 | 71 | 225 | 14.8 | 38.2 | 0.00 | 0.00 | 0.02 | 91 | 1010.0 |
| 20260503231351 | 71 | 221 | 16.5 | 39.1 | 0.00 | 0.00 | 0.02 | 90 | 1010.0 |
| 20260503231151 | 71 | 221 | 16.5 | 39.1 | 0.00 | 0.00 | 0.02 | 90 | 1010.0 |
| 20260503230951 | 71 | 221 | 16.5 | 39.1 | 0.00 | 0.00 | 0.02 | 90 | 1010.0 |
| 20260503230752 | 71 | 221 | 16.5 | 39.1 | 0.00 | 0.00 | 0.02 | 90 | 1010.0 |
| 20260503230551 | 71 | 221 | 16.5 | 39.1 | 0.00 | 0.00 | 0.02 | 90 | 1010.0 |
| 20260503230351 | 71 | 221 | 16.5 | 39.1 | 0.00 | 0.00 | 0.02 | 90 | 1010.0 |
| 20260503230152 | 71 | 221 | 16.5 | 39.1 | 0.00 | 0.00 | 0.02 | 90 | 1010.0 |
| 20260503225952 | 71 | 222 | 16.5 | 39.1 | 0.00 | 0.00 | 0.02 | 89 | 1010.0 |
| 20260503225552 | 71 | 222 | 16.5 | 39.1 | 0.00 | 0.00 | 0.02 | 89 | 1010.0 |
| 20260503225352 | 71 | 222 | 16.5 | 39.1 | 0.00 | 0.00 | 0.02 | 89 | 1010.0 |
| 20260503225152 | 71 | 222 | 16.5 | 39.1 | 0.00 | 0.00 | 0.02 | 89 | 1010.0 |
| 20260503224952 | 71 | 222 | 16.5 | 39.1 | 0.00 | 0.00 | 0.02 | 89 | 1010.0 |
| 20260503224752 | 71 | 222 | 16.5 | 39.1 | 0.00 | 0.00 | 0.02 | 89 | 1010.0 |
| 20260503224551 | 71 | 222 | 16.5 | 39.1 | 0.00 | 0.00 | 0.02 | 89 | 1010.0 |
| 20260503224352 | 72 | 224 | 17.4 | 40.0 | 0.00 | 0.00 | 0.02 | 87 | 1010.0 |
| 20260503224152 | 72 | 224 | 17.4 | 40.0 | 0.00 | 0.00 | 0.02 | 87 | 1010.0 |
| 20260503223952 | 72 | 224 | 17.4 | 40.0 | 0.00 | 0.00 | 0.02 | 87 | 1010.0 |
| 20260503223752 | 72 | 224 | 17.4 | 40.0 | 0.00 | 0.00 | 0.02 | 87 | 1010.0 |
| 20260503223352 | 72 | 224 | 17.4 | 40.0 | 0.00 | 0.00 | 0.02 | 87 | 1010.0 |
| 20260503223152 | 72 | 224 | 17.4 | 40.0 | 0.00 | 0.00 | 0.02 | 87 | 1010.0 |
| 20260503222952 | 72 | 226 | 18.2 | 40.0 | 0.00 | 0.00 | 0.02 | 85 | 1009.0 |
| 20260503222752 | 72 | 226 | 18.2 | 40.0 | 0.00 | 0.00 | 0.02 | 85 | 1009.0 |
| 20260503222552 | 72 | 226 | 18.2 | 40.0 | 0.00 | 0.00 | 0.02 | 85 | 1009.0 |
| 20260503222352 | 72 | 226 | 18.2 | 40.0 | 0.00 | 0.00 | 0.02 | 85 | 1009.0 |
| 20260503222152 | 72 | 226 | 18.2 | 40.0 | 0.00 | 0.00 | 0.02 | 85 | 1009.0 |
| 20260503221952 | 72 | 226 | 18.2 | 40.0 | 0.00 | 0.00 | 0.02 | 85 | 1009.0 |
| 20260503221752 | 72 | 226 | 18.2 | 40.0 | 0.00 | 0.00 | 0.02 | 85 | 1009.0 |
| 20260503221552 | 72 | 226 | 18.2 | 40.0 | 0.00 | 0.00 | 0.02 | 85 | 1009.0 |
| 20260503221151 | 72 | 228 | 19.1 | 40.0 | 0.00 | 0.00 | 0.02 | 84 | 1009.0 |
| 20260503220952 | 72 | 228 | 19.1 | 40.0 | 0.00 | 0.00 | 0.02 | 84 | 1009.0 |
| 20260503220752 | 72 | 228 | 19.1 | 40.0 | 0.00 | 0.00 | 0.02 | 84 | 1009.0 |
| 20260503220551 | 72 | 228 | 19.1 | 40.0 | 0.00 | 0.00 | 0.02 | 84 | 1009.0 |
| 20260503220351 | 72 | 228 | 19.1 | 40.0 | 0.00 | 0.00 | 0.02 | 84 | 1009.0 |
| 20260503220156 | 73 | 228 | 19.1 | 40.0 | 0.00 | 0.00 | 0.02 | 83 | 1009.0 |
| 20260503215952 | 73 | 228 | 19.1 | 40.0 | 0.00 | 0.00 | 0.02 | 83 | 1009.0 |
| 20260503215751 | 73 | 228 | 19.1 | 40.0 | 0.00 | 0.00 | 0.02 | 83 | 1009.0 |
| 20260503215552 | 73 | 228 | 19.1 | 40.0 | 0.00 | 0.00 | 0.02 | 83 | 1009.0 |
| 20260503215352 | 73 | 228 | 19.1 | 40.0 | 0.00 | 0.00 | 0.02 | 83 | 1009.0 |
| 20260503214952 | 73 | 228 | 19.1 | 40.0 | 0.00 | 0.00 | 0.02 | 83 | 1009.0 |
| 20260503214752 | 73 | 228 | 19.1 | 40.0 | 0.00 | 0.00 | 0.02 | 83 | 1009.0 |
| 20260503214552 | 73 | 228 | 19.1 | 40.0 | 0.00 | 0.00 | 0.02 | 83 | 1009.0 |
| 20260503214352 | 73 | 228 | 19.1 | 40.8 | 0.00 | 0.00 | 0.02 | 81 | 1009.0 |
| 20260503214152 | 73 | 228 | 19.1 | 40.8 | 0.00 | 0.00 | 0.02 | 81 | 1009.0 |
| 20260503213952 | 73 | 228 | 19.1 | 40.8 | 0.00 | 0.00 | 0.02 | 81 | 1009.0 |
| 20260503213752 | 73 | 228 | 19.1 | 40.8 | 0.00 | 0.00 | 0.02 | 81 | 1009.0 |
| 20260503213553 | 73 | 228 | 19.1 | 40.8 | 0.00 | 0.00 | 0.02 | 81 | 1009.0 |
| 20260503213352 | 73 | 228 | 19.1 | 40.8 | 0.00 | 0.00 | 0.02 | 81 | 1009.0 |
| 20260503212952 | 73 | 228 | 19.1 | 40.8 | 0.00 | 0.00 | 0.02 | 79 | 1009.0 |
| 20260503212752 | 73 | 228 | 19.1 | 40.8 | 0.00 | 0.00 | 0.02 | 79 | 1009.0 |
| 20260503212552 | 73 | 228 | 19.1 | 40.8 | 0.00 | 0.00 | 0.02 | 79 | 1009.0 |
| 20260503212352 | 73 | 228 | 19.1 | 40.8 | 0.00 | 0.00 | 0.02 | 79 | 1009.0 |
| 20260503212152 | 73 | 228 | 19.1 | 40.8 | 0.00 | 0.00 | 0.02 | 79 | 1009.0 |
| 20260503211952 | 73 | 228 | 19.1 | 40.8 | 0.00 | 0.00 | 0.02 | 79 | 1009.0 |
| 20260503211752 | 73 | 228 | 19.1 | 40.8 | 0.00 | 0.00 | 0.02 | 79 | 1009.0 |
| 20260503211352 | 73 | 229 | 19.1 | 41.7 | 0.00 | 0.00 | 0.02 | 77 | 1009.0 |
| 20260503211151 | 73 | 229 | 19.1 | 41.7 | 0.00 | 0.00 | 0.02 | 77 | 1009.0 |
| 20260503210952 | 73 | 229 | 19.1 | 41.7 | 0.00 | 0.00 | 0.02 | 77 | 1009.0 |
| 20260503210752 | 73 | 229 | 19.1 | 41.7 | 0.00 | 0.00 | 0.02 | 77 | 1009.0 |
| 20260503210552 | 73 | 229 | 19.1 | 41.7 | 0.00 | 0.00 | 0.02 | 77 | 1009.0 |
| 20260503210352 | 73 | 229 | 19.1 | 41.7 | 0.00 | 0.00 | 0.02 | 77 | 1009.0 |
| 20260503210152 | 73 | 229 | 19.1 | 41.7 | 0.00 | 0.00 | 0.02 | 77 | 1009.0 |
| 20260503205952 | 74 | 229 | 19.1 | 41.7 | 0.00 | 0.00 | 0.02 | 76 | 1009.0 |
| 20260503205751 | 74 | 229 | 19.1 | 41.7 | 0.00 | 0.00 | 0.02 | 76 | 1009.0 |
| 20260503205552 | 74 | 229 | 19.1 | 41.7 | 0.00 | 0.00 | 0.02 | 76 | 1009.0 |
| 20260503205152 | 74 | 229 | 19.1 | 41.7 | 0.00 | 0.00 | 0.02 | 76 | 1009.0 |
| 20260503204952 | 74 | 229 | 19.1 | 41.7 | 0.00 | 0.00 | 0.02 | 76 | 1009.0 |
| 20260503204752 | 74 | 229 | 19.1 | 41.7 | 0.00 | 0.00 | 0.02 | 76 | 1009.0 |
| 20260503204552 | 74 | 229 | 19.1 | 41.7 | 0.00 | 0.00 | 0.02 | 76 | 1009.0 |
| 20260503204352 | 74 | 229 | 20.0 | 41.7 | 0.00 | 0.00 | 0.02 | 75 | 1009.0 |
| 20260503204152 | 74 | 229 | 20.0 | 41.7 | 0.00 | 0.00 | 0.02 | 75 | 1009.0 |
| 20260503203952 | 74 | 229 | 20.0 | 41.7 | 0.00 | 0.00 | 0.02 | 75 | 1009.0 |
| 20260503203752 | 74 | 229 | 20.0 | 41.7 | 0.00 | 0.00 | 0.02 | 75 | 1009.0 |
| 20260503203552 | 74 | 229 | 20.0 | 41.7 | 0.00 | 0.00 | 0.02 | 75 | 1009.0 |
| 20260503203152 | 74 | 229 | 20.0 | 41.7 | 0.00 | 0.00 | 0.02 | 75 | 1009.0 |
| 20260503202952 | 74 | 229 | 20.0 | 41.7 | 0.00 | 0.00 | 0.02 | 73 | 1010.0 |
| 20260503202752 | 74 | 229 | 20.0 | 41.7 | 0.00 | 0.00 | 0.02 | 73 | 1010.0 |
| 20260503202552 | 74 | 229 | 20.0 | 41.7 | 0.00 | 0.00 | 0.02 | 73 | 1010.0 |
| 20260503202352 | 74 | 229 | 20.0 | 41.7 | 0.00 | 0.00 | 0.02 | 73 | 1010.0 |
| 20260503202153 | 74 | 229 | 20.0 | 41.7 | 0.00 | 0.00 | 0.02 | 73 | 1010.0 |
| 20260503201952 | 74 | 229 | 20.0 | 41.7 | 0.00 | 0.00 | 0.02 | 73 | 1010.0 |
| 20260503201752 | 74 | 229 | 20.0 | 41.7 | 0.00 | 0.00 | 0.02 | 73 | 1010.0 |
| 20260503201552 | 74 | 229 | 20.0 | 41.7 | 0.00 | 0.00 | 0.02 | 73 | 1010.0 |
| 20260503201152 | 75 | 232 | 20.0 | 42.6 | 0.00 | 0.00 | 0.02 | 71 | 1010.0 |
| 20260503200952 | 75 | 232 | 20.0 | 42.6 | 0.00 | 0.00 | 0.02 | 71 | 1010.0 |
| 20260503200752 | 75 | 232 | 20.0 | 42.6 | 0.00 | 0.00 | 0.02 | 71 | 1010.0 |
| 20260503200552 | 75 | 232 | 20.0 | 42.6 | 0.00 | 0.00 | 0.02 | 71 | 1010.0 |
| 20260503200352 | 75 | 232 | 20.0 | 42.6 | 0.00 | 0.00 | 0.02 | 71 | 1010.0 |
| 20260503200152 | 75 | 232 | 20.0 | 42.6 | 0.00 | 0.00 | 0.02 | 71 | 1010.0 |
| 20260503195952 | 75 | 236 | 20.0 | 44.3 | 0.00 | 0.00 | 0.02 | 70 | 1010.0 |
| 20260503195752 | 75 | 236 | 20.0 | 44.3 | 0.00 | 0.00 | 0.02 | 70 | 1010.0 |
| 20260503195552 | 75 | 236 | 20.0 | 44.3 | 0.00 | 0.00 | 0.02 | 70 | 1010.0 |
| 20260503195352 | 75 | 236 | 20.0 | 44.3 | 0.00 | 0.00 | 0.02 | 70 | 1010.0 |
| 20260503194952 | 75 | 236 | 20.0 | 44.3 | 0.00 | 0.00 | 0.02 | 70 | 1010.0 |
| 20260503194752 | 75 | 236 | 20.0 | 44.3 | 0.00 | 0.00 | 0.02 | 70 | 1010.0 |
| 20260503194552 | 75 | 236 | 20.0 | 44.3 | 0.00 | 0.00 | 0.02 | 70 | 1010.0 |
| 20260503194355 | 76 | 242 | 20.0 | 46.1 | 0.00 | 0.00 | 0.02 | 67 | 1010.0 |
| 20260503194152 | 76 | 242 | 20.0 | 46.1 | 0.00 | 0.00 | 0.02 | 67 | 1010.0 |
| 20260503193952 | 76 | 242 | 20.0 | 46.1 | 0.00 | 0.00 | 0.02 | 67 | 1010.0 |
| 20260503193752 | 76 | 242 | 20.0 | 46.1 | 0.00 | 0.00 | 0.02 | 67 | 1010.0 |
| 20260503193552 | 76 | 242 | 20.0 | 46.1 | 0.00 | 0.00 | 0.02 | 67 | 1010.0 |
| 20260503193352 | 76 | 242 | 20.0 | 46.1 | 0.00 | 0.00 | 0.02 | 67 | 1010.0 |
| 20260503192952 | 76 | 247 | 20.0 | 47.8 | 0.00 | 0.00 | 0.02 | 65 | 1010.0 |
| 20260503192752 | 76 | 247 | 20.0 | 47.8 | 0.00 | 0.00 | 0.02 | 65 | 1010.0 |
| 20260503192552 | 76 | 247 | 20.0 | 47.8 | 0.00 | 0.00 | 0.02 | 65 | 1010.0 |
| 20260503192352 | 76 | 247 | 20.0 | 47.8 | 0.00 | 0.00 | 0.02 | 65 | 1010.0 |
| 20260503192152 | 76 | 251 | 20.0 | 47.8 | 0.00 | 0.00 | 0.02 | 65 | 1010.0 |
| 20260503191952 | 76 | 251 | 20.0 | 47.8 | 0.00 | 0.00 | 0.02 | 65 | 1010.0 |
| 20260503191752 | 76 | 251 | 20.0 | 47.8 | 0.00 | 0.00 | 0.02 | 65 | 1010.0 |
| 20260503191552 | 76 | 251 | 20.0 | 47.8 | 0.00 | 0.00 | 0.02 | 65 | 1010.0 |
| 20260503191352 | 77 | 250 | 19.1 | 48.7 | 0.00 | 0.00 | 0.02 | 61 | 1010.0 |
| 20260503190952 | 77 | 250 | 19.1 | 48.7 | 0.00 | 0.00 | 0.02 | 61 | 1010.0 |
| 20260503190752 | 77 | 250 | 19.1 | 48.7 | 0.00 | 0.00 | 0.02 | 61 | 1010.0 |
| 20260503190552 | 77 | 250 | 19.1 | 50.4 | 0.00 | 0.00 | 0.02 | 61 | 1010.0 |
| 20260503190352 | 77 | 250 | 19.1 | 50.4 | 0.00 | 0.00 | 0.02 | 61 | 1010.0 |
| 20260503190152 | 77 | 250 | 19.1 | 50.4 | 0.00 | 0.00 | 0.02 | 61 | 1010.0 |
| 20260503185952 | 77 | 243 | 20.0 | 50.4 | 0.00 | 0.02 | 0.00 | 59 | 1010.0 |
| 20260503185752 | 77 | 243 | 20.0 | 50.4 | 0.00 | 0.02 | 0.00 | 59 | 1010.0 |
| 20260503185552 | 78 | 243 | 20.0 | 50.4 | 0.00 | 0.02 | 0.00 | 56 | 1010.0 |
| 20260503185352 | 78 | 243 | 20.0 | 50.4 | 0.00 | 0.02 | 0.00 | 56 | 1010.0 |
| 20260503185152 | 78 | 243 | 20.0 | 50.4 | 0.00 | 0.02 | 0.00 | 56 | 1010.0 |
| 20260503184752 | 78 | 243 | 20.0 | 50.4 | 0.00 | 0.02 | 0.00 | 56 | 1010.0 |
| 20260503184552 | 78 | 243 | 20.0 | 50.4 | 0.00 | 0.02 | 0.00 | 56 | 1010.0 |
| 20260503184352 | 79 | 236 | 21.7 | 49.5 | 0.00 | 0.02 | 0.00 | 52 | 1010.0 |
| 20260503184152 | 79 | 236 | 21.7 | 49.5 | 0.00 | 0.02 | 0.00 | 52 | 1010.0 |
| 20260503183952 | 79 | 236 | 21.7 | 49.5 | 0.00 | 0.02 | 0.00 | 52 | 1010.0 |
| 20260503183752 | 79 | 236 | 21.7 | 49.5 | 0.00 | 0.19 | 0.00 | 52 | 1010.0 |
| 20260503183552 | 79 | 236 | 21.7 | 49.5 | 0.00 | 0.19 | 0.00 | 52 | 1010.0 |
| 20260503183352 | 79 | 236 | 21.7 | 49.5 | 0.00 | 0.19 | 0.00 | 47 | 1010.0 |
| 20260503183152 | 79 | 236 | 21.7 | 49.5 | 0.00 | 0.19 | 0.00 | 47 | 1010.0 |
| 20260503182953 | 80 | 230 | 23.5 | 47.8 | 0.00 | 0.19 | 0.00 | 44 | 1010.0 |
| 20260503182552 | 80 | 230 | 23.5 | 47.8 | 0.00 | 0.19 | 0.00 | 44 | 1010.0 |
| 20260503182352 | 80 | 230 | 23.5 | 47.8 | 0.00 | 0.19 | 0.00 | 44 | 1010.0 |
| 20260503182152 | 80 | 230 | 23.5 | 47.8 | 0.00 | 0.19 | 0.00 | 44 | 1010.0 |
| 20260503181952 | 80 | 230 | 23.5 | 47.8 | 0.00 | 0.19 | 0.00 | 44 | 1010.0 |
| 20260503181752 | 80 | 230 | 23.5 | 47.8 | 0.00 | 0.19 | 0.00 | 44 | 1010.0 |
| 20260503181552 | 80 | 230 | 23.5 | 47.8 | 0.00 | 0.19 | 0.00 | 44 | 1010.0 |
| 20260503181352 | 81 | 226 | 23.5 | 46.1 | 0.00 | 0.19 | 0.00 | 42 | 1010.0 |
| 20260503181152 | 81 | 226 | 23.5 | 46.1 | 0.00 | 0.19 | 0.00 | 42 | 1010.0 |
| 20260503180952 | 81 | 226 | 23.5 | 46.1 | 0.00 | 0.19 | 0.00 | 42 | 1010.0 |
| 20260503173952 | 81 | 221 | 15.6 | 33.9 | 0.00 | 0.19 | 0.00 | 42 | 1010.0 |
| 20260503173752 | 81 | 221 | 15.6 | 33.9 | 0.00 | 0.19 | 0.00 | 42 | 1010.0 |
| 20260503173552 | 81 | 221 | 15.6 | 33.9 | 0.00 | 0.19 | 0.00 | 42 | 1010.0 |
| 20260503173352 | 81 | 221 | 15.6 | 33.9 | 0.00 | 0.19 | 0.00 | 42 | 1010.0 |
| 20260503173152 | 81 | 221 | 15.6 | 33.9 | 0.00 | 0.19 | 0.00 | 42 | 1010.0 |
| 20260503172952 | 82 | 216 | 11.3 | 26.9 | 0.00 | 0.19 | 0.00 | 42 | 1010.0 |
| 20260503172752 | 82 | 216 | 11.3 | 26.9 | 0.00 | 0.19 | 0.00 | 42 | 1010.0 |
| 20260503172552 | 82 | 216 | 11.3 | 26.9 | 0.00 | 0.19 | 0.00 | 42 | 1010.0 |
| 20260503172352 | 82 | 216 | 11.3 | 26.9 | 0.00 | 0.19 | 0.00 | 42 | 1010.0 |
| 20260503171952 | 82 | 216 | 11.3 | 26.9 | 0.00 | 0.19 | 0.00 | 42 | 1010.0 |
| 20260503171752 | 82 | 216 | 11.3 | 26.9 | 0.00 | 0.19 | 0.00 | 42 | 1010.0 |
| 20260503171552 | 82 | 216 | 11.3 | 26.9 | 0.00 | 0.19 | 0.00 | 42 | 1010.0 |
| 20260503171352 | 82 | 208 | 7.8 | 21.7 | 0.00 | 0.19 | 0.00 | 42 | 1010.0 |
| 20260503171152 | 82 | 208 | 7.8 | 21.7 | 0.00 | 0.19 | 0.00 | 42 | 1010.0 |
| 20260503170952 | 82 | 208 | 7.8 | 21.7 | 0.00 | 0.19 | 0.00 | 42 | 1010.0 |
| 20260503170752 | 82 | 208 | 7.8 | 21.7 | 0.00 | 0.19 | 0.00 | 42 | 1010.0 |
| 20260503170552 | 82 | 208 | 7.8 | 21.7 | 0.00 | 0.19 | 0.00 | 42 | 1010.0 |
| 20260503170352 | 82 | 208 | 7.8 | 21.7 | 0.00 | 0.19 | 0.00 | 42 | 1010.0 |
| 20260503170152 | 82 | 208 | 7.8 | 21.7 | 0.00 | 0.19 | 0.00 | 42 | 1010.0 |
| 20260503160143 | 83 | 193 | 6.1 | 13.0 | 0.00 | 0.19 | 0.00 | 41 | 1009.0 |
| 20260503150944 | 85 | 252 | 2.6 | 13.9 | 0.00 | 0.19 | 0.00 | 46 | 1009.0 |
| 20260503150543 | 85 | 252 | 2.6 | 13.9 | 0.00 | 0.19 | 0.00 | 46 | 1009.0 |
| 20260503150343 | 85 | 252 | 2.6 | 13.9 | 0.00 | 0.19 | 0.00 | 46 | 1009.0 |
| 20260503150143 | 85 | 252 | 2.6 | 13.9 | 0.00 | 0.19 | 0.00 | 46 | 1009.0 |
| 20260503140305 | 87 | 309 | 6.1 | 15.6 | 0.00 | 0.19 | 0.00 | 34 | 1008.0 |
| 20260503131355 | 89 | 346 | 11.3 | 26.1 | 0.00 | 0.19 | 0.00 | 29 | 1007.0 |
| 20260503131155 | 89 | 346 | 11.3 | 26.1 | 0.00 | 0.19 | 0.00 | 29 | 1007.0 |
| 20260503130955 | 89 | 346 | 11.3 | 35.6 | 0.00 | 0.19 | 0.00 | 29 | 1007.0 |
| 20260503130755 | 89 | 346 | 11.3 | 35.6 | 0.00 | 0.19 | 0.00 | 29 | 1007.0 |
| 20260503130556 | 89 | 346 | 11.3 | 35.6 | 0.00 | 0.19 | 0.00 | 29 | 1007.0 |
| 20260503130155 | 89 | 346 | 11.3 | 35.6 | 0.00 | 0.19 | 0.00 | 29 | 1007.0 |
| 20260503110756 | 94 | 335 | 11.3 | 39.1 | 0.00 | 0.19 | 0.00 | 23 | 1006.0 |
| 20260503110556 | 94 | 335 | 11.3 | 39.1 | 0.00 | 0.19 | 0.00 | 23 | 1006.0 |
| 20260503110355 | 94 | 335 | 11.3 | 39.1 | 0.00 | 0.19 | 0.00 | 23 | 1006.0 |
| 20260503110159 | 94 | 335 | 11.3 | 39.1 | 0.00 | 0.19 | 0.00 | 23 | 1006.0 |
| 20260503100156 | 94 | 338 | 11.3 | 44.3 | 0.00 | 0.19 | 0.00 | 22 | 1006.0 |
| 20260503090345 | 95 | 336 | 13.9 | 44.3 | 0.00 | 0.19 | 0.00 | 21 | 1007.0 |
| 20260503090145 | 95 | 336 | 13.9 | 44.3 | 0.00 | 0.19 | 0.00 | 21 | 1007.0 |
| 20260503081345 | 95 | 317 | 12.2 | 46.1 | 0.00 | 0.19 | 0.00 | 22 | 1008.0 |
| 20260503081145 | 95 | 317 | 12.2 | 46.1 | 0.00 | 0.19 | 0.00 | 22 | 1008.0 |
| 20260503080946 | 95 | 317 | 12.2 | 46.1 | 0.00 | 0.19 | 0.00 | 22 | 1008.0 |
| 20260503080745 | 95 | 317 | 12.2 | 46.1 | 0.00 | 0.19 | 0.00 | 22 | 1008.0 |
| 20260503080545 | 95 | 317 | 12.2 | 46.1 | 0.00 | 0.19 | 0.00 | 22 | 1008.0 |
| 20260503080345 | 95 | 317 | 12.2 | 46.1 | 0.00 | 0.19 | 0.00 | 22 | 1008.0 |
| 20260503080145 | 95 | 317 | 12.2 | 46.1 | 0.00 | 0.19 | 0.00 | 22 | 1008.0 |
| 20260503072745 | 94 | 306 | 11.3 | 47.8 | 0.00 | 0.19 | 0.00 | 23 | 1008.0 |
| 20260503072545 | 94 | 306 | 11.3 | 47.8 | 0.00 | 0.19 | 0.00 | 23 | 1008.0 |
| 20260503072346 | 94 | 306 | 11.3 | 47.8 | 0.00 | 0.19 | 0.00 | 23 | 1008.0 |
| 20260503072145 | 94 | 306 | 11.3 | 47.8 | 0.00 | 0.19 | 0.00 | 23 | 1008.0 |
| 20260503071946 | 94 | 309 | 10.4 | 47.8 | 0.00 | 0.19 | 0.00 | 23 | 1008.0 |
| 20260503071745 | 94 | 309 | 10.4 | 47.8 | 0.00 | 0.19 | 0.00 | 23 | 1008.0 |
| 20260503071546 | 94 | 309 | 10.4 | 47.8 | 0.00 | 0.19 | 0.00 | 23 | 1008.0 |
| 20260503071146 | 94 | 308 | 10.4 | 46.1 | 0.00 | 0.19 | 0.00 | 23 | 1009.0 |
| 20260503070946 | 94 | 308 | 10.4 | 46.1 | 0.00 | 0.19 | 0.00 | 23 | 1009.0 |
| 20260503070746 | 94 | 308 | 10.4 | 46.1 | 0.00 | 0.19 | 0.00 | 23 | 1009.0 |